Hourly Weather Kiustendil

Today, 2 August, Monday

Time Temperature Precipitation Wind Pressure Humidity
00:00 +20°C° 0 mm 1 mps 627 mmHg 31%
01:00 +19°C° 0 mm 1 mps 627 mmHg 32%
02:00 +19°C° 0 mm 1 mps 627 mmHg 33%
03:00 +18°C° 0 mm 1 mps 626 mmHg 34%
04:00 +17°C° 0 mm 2 mps 626 mmHg 35%
05:00 +20°C° 0 mm 2 mps 627 mmHg 32%
06:00 +23°C° 0 mm 2 mps 628 mmHg 28%
07:00 +26°C° 0 mm 2 mps 629 mmHg 25%
08:00 +28°C° 0 mm 3 mps 629 mmHg 22%
09:00 +29°C° 0 mm 4 mps 630 mmHg 19%
10:00 +32°C° 0 mm 6 mps 630 mmHg 16%
11:00 +33°C° 0 mm 6 mps 630 mmHg 14%
12:00 +34°C° 0 mm 7 mps 630 mmHg 12%
13:00 +35°C° 0 mm 8 mps 630 mmHg 11%
14:00 +34°C° 0 mm 8 mps 630 mmHg 11%
15:00 +33°C° 0 mm 9 mps 630 mmHg 11%
16:00 +32°C° 0 mm 9 mps 630 mmHg 11%
17:00 +29°C° 0 mm 8 mps 629 mmHg 13%
18:00 +26°C° 0 mm 6 mps 629 mmHg 15%
19:00 +23°C° 0 mm 4 mps 628 mmHg 17%
20:00 +21°C° 0 mm 3 mps 628 mmHg 20%
21:00 +19°C° 0 mm 2 mps 627 mmHg 22%
22:00 +18°C° 0 mm 1 mps 627 mmHg 25%
23:00 +18°C° 0 mm 1 mps 627 mmHg 26%

Tomorrow, 3 August, Tuesday

Time Temperature Precipitation Wind Pressure Humidity
00:00 +16°C° 0 mm 1 mps 627 mmHg 27%
01:00 +16°C° 0 mm 1 mps 627 mmHg 28%
02:00 +16°C° 0 mm 1 mps 627 mmHg 29%
03:00 +15°C° 0 mm 1 mps 627 mmHg 31%
04:00 +15°C° 0 mm 1 mps 627 mmHg 32%
05:00 +18°C° 0 mm 1 mps 628 mmHg 30%
06:00 +21°C° 0 mm 1 mps 629 mmHg 27%
07:00 +23°C° 0 mm 1 mps 630 mmHg 24%
08:00 +25°C° 0 mm 2 mps 630 mmHg 22%
09:00 +27°C° 0 mm 2 mps 631 mmHg 20%
10:00 +29°C° 0 mm 3 mps 632 mmHg 17%
11:00 +29°C° 0 mm 3 mps 632 mmHg 16%
12:00 +30°C° 0 mm 4 mps 631 mmHg 15%
13:00 +32°C° 0 mm 5 mps 631 mmHg 13%
14:00 +32°C° 0 mm 5 mps 631 mmHg 13%
15:00 +32°C° 0 mm 5 mps 631 mmHg 13%
16:00 +32°C° 0 mm 5 mps 630 mmHg 13%
17:00 +29°C° 0 mm 4 mps 630 mmHg 16%
18:00 +26°C° 0 mm 4 mps 630 mmHg 20%
19:00 +24°C° 0 mm 3 mps 629 mmHg 24%
20:00 +21°C° 0 mm 2 mps 629 mmHg 26%
21:00 +20°C° 0 mm 2 mps 629 mmHg 29%
22:00 +20°C° 0 mm 1 mps 628 mmHg 32%
23:00 +19°C° 0 mm 1 mps 628 mmHg 33%

Day after tomorrow, 4 August, Wednesday

Time Temperature Precipitation Wind Pressure Humidity
00:00 +18°C° 0 mm 1 mps 628 mmHg 35%
01:00 +18°C° 0 mm 1 mps 627 mmHg 36%
02:00 +16°C° 0 mm 1 mps 627 mmHg 38%
03:00 +15°C° 0 mm 1 mps 627 mmHg 40%
04:00 +15°C° 0 mm 1 mps 627 mmHg 43%
05:00 +18°C° 0 mm 1 mps 628 mmHg 38%
06:00 +20°C° 0 mm 1 mps 629 mmHg 34%
07:00 +23°C° 0 mm 1 mps 630 mmHg 30%
08:00 +24°C° 0 mm 1 mps 630 mmHg 26%
09:00 +26°C° 0 mm 2 mps 631 mmHg 22%
10:00 +28°C° 0 mm 2 mps 631 mmHg 19%
11:00 +29°C° 0 mm 2 mps 631 mmHg 18%
12:00 +30°C° 0 mm 3 mps 631 mmHg 17%
13:00 +31°C° 0 mm 3 mps 631 mmHg 16%
14:00 +31°C° 0 mm 2 mps 631 mmHg 16%
15:00 +31°C° 0 mm 2 mps 630 mmHg 16%
16:00 +31°C° 0 mm 2 mps 630 mmHg 16%
17:00 +28°C° 0 mm 1 mps 629 mmHg 19%
18:00 +26°C° 0 mm 1 mps 629 mmHg 23%
19:00 +23°C° 0 mm 1 mps 628 mmHg 27%
20:00 +22°C° 0 mm 1 mps 628 mmHg 28%
21:00 +21°C° 0 mm 1 mps 628 mmHg 30%
22:00 +19°C° 0 mm 2 mps 628 mmHg 32%
23:00 +19°C° 0 mm 1 mps 627 mmHg 32%

5 August, Thursday

Time Temperature Precipitation Wind Pressure Humidity
00:00 +19°C° 0 mm 1 mps 627 mmHg 33%
01:00 +18°C° 0 mm 1 mps 627 mmHg 34%
02:00 +18°C° 0 mm 1 mps 626 mmHg 35%
03:00 +18°C° 0 mm 1 mps 626 mmHg 36%
04:00 +16°C° 0 mm 1 mps 626 mmHg 36%
05:00 +20°C° 0 mm 1 mps 627 mmHg 33%
06:00 +22°C° 0 mm 1 mps 627 mmHg 29%
07:00 +24°C° 0 mm 1 mps 628 mmHg 26%
08:00 +26°C° 0 mm 2 mps 629 mmHg 23%
09:00 +28°C° 0 mm 3 mps 629 mmHg 21%
10:00 +32°C° 0 mm 4 mps 630 mmHg 18%
11:00 +32°C° 0 mm 5 mps 629 mmHg 16%
12:00 +33°C° 0 mm 6 mps 629 mmHg 14%
13:00 +34°C° 0 mm 7 mps 628 mmHg 12%
14:00 +29°C° 0.3 mm 5 mps 627 mmHg 25%
15:00 +25°C° 0.3 mm 4 mps 626 mmHg 37%
16:00 +20°C° 0.3 mm 3 mps 625 mmHg 49%
17:00 +19°C° 0.1 mm 2 mps 625 mmHg 52%
18:00 +18°C° 0.1 mm 2 mps 624 mmHg 55%
19:00 +16°C° 0.1 mm 1 mps 624 mmHg 58%
20:00 +16°C° 0 mm 1 mps 624 mmHg 58%
21:00 +15°C° 0 mm 1 mps 623 mmHg 59%
22:00 +14°C° 0 mm 1 mps 623 mmHg 59%
23:00 +14°C° 0 mm 1 mps 623 mmHg 58%

6 August, Friday

Time Temperature Precipitation Wind Pressure Humidity
00:00 +14°C° 0 mm 1 mps 623 mmHg 57%
01:00 +14°C° 0 mm 1 mps 623 mmHg 56%
02:00 +14°C° 0 mm 1 mps 622 mmHg 56%
03:00 +13°C° 0 mm 1 mps 622 mmHg 56%
04:00 +13°C° 0 mm 1 mps 622 mmHg 55%
05:00 +15°C° 0 mm 1 mps 623 mmHg 52%
06:00 +16°C° 0 mm 1 mps 623 mmHg 48%
07:00 +19°C° 0 mm 1 mps 624 mmHg 44%
08:00 +20°C° 0 mm 2 mps 624 mmHg 39%
09:00 +23°C° 0 mm 2 mps 625 mmHg 34%
10:00 +24°C° 0 mm 3 mps 625 mmHg 29%
11:00 +22°C° 0.2 mm 3 mps 625 mmHg 33%
12:00 +21°C° 0.2 mm 4 mps 625 mmHg 38%
13:00 +20°C° 0.2 mm 4 mps 624 mmHg 42%
14:00 +21°C° 0.3 mm 4 mps 624 mmHg 40%
15:00 +21°C° 0.3 mm 3 mps 625 mmHg 37%
16:00 +22°C° 0.3 mm 3 mps 625 mmHg 34%
17:00 +20°C° 0 mm 3 mps 624 mmHg 41%
18:00 +17°C° 0 mm 3 mps 624 mmHg 47%
19:00 +15°C° 0 mm 2 mps 624 mmHg 53%
20:00 +14°C° 0 mm 2 mps 624 mmHg 54%
21:00 +14°C° 0 mm 2 mps 624 mmHg 55%
22:00 +13°C° 0 mm 2 mps 624 mmHg 56%
23:00 +13°C° 0 mm 2 mps 624 mmHg 56%

7 August, Saturday

Time Temperature Precipitation Wind Pressure Humidity
00:00 +12°C° 0 mm 2 mps 624 mmHg 56%
01:00 +12°C° 0 mm 1 mps 624 mmHg 56%
02:00 +11°C° 0 mm 1 mps 624 mmHg 57%
03:00 +11°C° 0 mm 1 mps 624 mmHg 58%
04:00 +11°C° 0 mm 1 mps 624 mmHg 59%
05:00 +13°C° 0 mm 1 mps 625 mmHg 52%
06:00 +15°C° 0 mm 1 mps 626 mmHg 46%
07:00 +19°C° 0 mm 1 mps 627 mmHg 39%
08:00 +21°C° 0 mm 1 mps 628 mmHg 33%
09:00 +23°C° 0 mm 1 mps 628 mmHg 28%
10:00 +25°C° 0 mm 2 mps 629 mmHg 22%
11:00 +26°C° 0 mm 2 mps 629 mmHg 20%
12:00 +27°C° 0 mm 2 mps 629 mmHg 18%
13:00 +29°C° 0 mm 2 mps 629 mmHg 15%
14:00 +29°C° 0 mm 2 mps 629 mmHg 15%
15:00 +29°C° 0 mm 2 mps 629 mmHg 15%
16:00 +29°C° 0 mm 2 mps 629 mmHg 15%
17:00 +26°C° 0 mm 2 mps 628 mmHg 20%
18:00 +23°C° 0 mm 2 mps 627 mmHg 25%
19:00 +18°C° 0 mm 2 mps 627 mmHg 29%
20:00 +18°C° 0 mm 2 mps 627 mmHg 32%
21:00 +17°C° 0 mm 2 mps 627 mmHg 35%
22:00 +16°C° 0 mm 2 mps 627 mmHg 38%
23:00 +15°C° 0 mm 2 mps 627 mmHg 40%
Show more